{"data":{"norad_id":50492,"epoch":"2026-05-25T02:42:07.521120Z","epoch_age_seconds":74074,"freshness":"FRESH","line1":"1 50492U 21132Z   26145.11258705  .00000038  00000+0  64376-4 0  9996","line2":"2 50492  87.9160 340.0506 0001998  93.6983 266.4378 13.18688028218569","mean_motion":13.18688028,"eccentricity":0.0001998,"inclination_deg":87.916,"raan_deg":340.0506,"arg_perigee_deg":93.6983,"mean_anomaly_deg":266.4378,"bstar":6.4376e-5,"rev_number":21856,"period_min":109.19944440415,"perigee_km":1188.2233069101,"apogee_km":1191.2474287083,"semimajor_km":7567.8723678092,"source":"CELESTRAK","updated_at":"2026-05-25T13:38:22.532993Z"}}